Location: Dal�� Lhota
(48.7500°N, 14.0167°E)
Time: 07:26:32
(UTC+00:00)

Explorer 7 - Pass Details

Date: 04 August 2021
Orbit: 484 x 676 km, 50.3° (Epoch: 21 September)

Event Time Altitude Azimuth Distance (km) Brightness Sun altitude
Rises 02:09:12 0° 199° (SSW) 2,532 - -13.0°
Reaches altitude 10° 02:11:57 10° 178° (S) 1,662 - -12.7°
Exits shadow 02:12:03 10° 176° (S) 1,636 8.8 -12.7°
Maximum altitude 02:14:20 16° 138° (SE) 1,334 8.8 -12.4°
Drops below altitude 10° 02:16:45 10° 98° (E) 1,696 9.8 -12.1°
Sets 02:19:35 0° 77° (ENE) 2,611 11.4 -11.8°
